User: anonymous   Login
Location: Unspecified
(0.0000°N, 0.0000°E)
Time: 06:38:02
(UTC+00:00)
Language:

SEEDS - Orbit

View from above orbital plane
View from above orbital plane
View from above satellite
View from above satellite

Ground track
Ground track

The orbit data is extracted from the following two-line orbital elements,

1 32791U 08021J   19109.90037282  .00000412  00000-0  47196-4 0  9992
2 32791  97.5296 118.3439 0014990  78.8548 281.4356 14.90778846595208
Epoch (UTC): 19 April 2019 21:36:32
Eccentricity: 0.0014990
inclination: 97.5296°
perigee height: 585 km
apogee height: 606 km
right ascension of ascending node: 118.3439°
argument of perigee: 78.8548°
revolutions per day: 14.90778846
mean anomaly at epoch: 281.4356°
orbit number at epoch: 59520

The dashed part of the orbit path shows where the satellite is in the earth's shadow,  

DLR